Location: Cz?stochówka
(50.8142°N, 19.0915°E)
Time: 09:58:42
(UTC+00:00)

BREEZE-M DEB (TANK) - Pass Details

Date: 13 January 2026
Orbit: 990 x 35628 km, 47.4° (Epoch: 11 February)

Event Time Altitude Azimuth Distance (km) Brightness Sun altitude
Rises 05:56:51 0° 248° (WSW) 5,298 6.9 -6.9°
Reaches altitude 10° 06:00:41 10° 245° (WSW) 3,444 6.0 -6.4°
Maximum altitude 06:06:49 58° 166° (SSE) 1,147 4.2 -5.5°
Drops below altitude 10° 06:12:30 10° 87° (E) 3,200 7.3 -4.7°
Sets 06:15:53 0° 83° (E) 4,856 8.1 -4.2°
